Location: Tucson
(32.2217°N, 110.9265°W)
Time: 08:11:44
(UTC-07:00)

Tiros 1 - Pass Details

Date: 25 October 2021
Orbit: 629 x 664 km, 48.4° (Epoch: 27 November)

Event Time Altitude Azimuth Distance (km) Brightness Sun altitude
Rises 12:17:18 0° 301° (WNW) 2,976 10.4 45.3°
Reaches altitude 10° 12:21:32 10° 337° (NNW) 2,056 9.5 45.3°
Maximum altitude 12:22:54 11° 354° (N) 1,980 9.3 45.3°
Drops below altitude 10° 12:24:16 10° 11° (NNE) 2,050 9.4 45.2°
Sets 12:28:28 0° 47° (NE) 2,950 10.2 45.1°
